Tulsa, OK

12:55 AM CDT on October 01, 2016 (GMT -0500)
Tulsa International

Weather History for KTUL - August, 2014

Change the Weather History Date:

Sunday, August 10, 2014

  Actual Average Record
Temperature  
Mean Temperature 82 °F 83 °F  
Max Temperature 92 °F 94 °F 115 °F (1936)
Min Temperature 71 °F 72 °F 55 °F (1920)
Cooling Degree Days 17 18  
Month to date cooling degree days 158 184  
Year to date cooling degree days 1250 1352  
Since 1 June cooling degree days 979 1118  
Growing Degree Days 31 (Base 50)    
Moisture  
Dew Point 71 °F    
Average Humidity 73    
Maximum Humidity 93    
Minimum Humidity 52    
Precipitation  
Precipitation 0.00 in 0.09 in 3.44 in (2011)
Month to date precipitation 0.79 0.90  
Year to date precipitation 18.33 25.48  
Sea Level Pressure  
Sea Level Pressure 29.96 in    
Wind  
Wind Speed 5 mph (NNW)    
Max Wind Speed 14 mph    
Max Gust Speed 17 mph    
Visibility 10 miles    
Events      
T = Trace of Precipitation, MM = Missing Value Source: NWS Daily Summary

Daily Weather History Graph

Daily Weather History Graph

Search for Another Location

Airport or City:

Trip Planner

Search our weather history database for the weather conditions in past years. The results will help you decide how hot, cold, wet, or windy it might be!

Date:

Astronomy

Aug. 10, 2014 Rise Set
Actual Time 6:37 AM CDT 8:19 PM CDT
Civil Twilight 6:10 AM CDT 8:47 PM CDT
Nautical Twilight 5:36 AM CDT 9:20 PM CDT
Astronomical Twilight 5:01 AM CDT 9:55 PM CDT
Moon 8:09 PM CDT (8/10) 6:29 AM CDT (8/10)
Length of Visible Light 14h 37m
Length of Day
13h 41m
Full, 100% of the Moon is Illuminated
Aug 10
Full
Aug 10
Full
Aug 17
Last Quarter
Aug 25
New
Sep 2
First Quarter

Hourly Weather History & Observations

Time (CDT) Temp. Heat Index Dew Point Humidity Pressure Visibility Wind Dir Wind Speed Gust Speed Precip Events Conditions
12:53 AM 73.0 °F - 71.1 °F 93% 29.94 in 10.0 mi ESE 5.8 mph - N/A   Overcast
1:53 AM 73.0 °F - 71.1 °F 93% 29.95 in 10.0 mi East 3.5 mph - N/A   Overcast
2:53 AM 72.0 °F - 70.0 °F 93% 29.94 in 10.0 mi East 4.6 mph - N/A   Overcast
3:53 AM 71.6 °F - 69.8 °F 94% 29.96 in 10.0 mi ESE 6.9 mph - N/A   Overcast
4:53 AM 73.0 °F - 71.1 °F 93% 29.99 in 10.0 mi NNW 3.5 mph - N/A   Overcast
5:53 AM 75.0 °F - 71.1 °F 87% 29.97 in 10.0 mi Calm Calm - N/A   Mostly Cloudy
6:53 AM 73.4 °F - 71.6 °F 94% 29.97 in 10.0 mi SSE 6.9 mph - N/A   Scattered Clouds
7:53 AM 75.9 °F - 71.1 °F 85% 29.95 in 10.0 mi SSE 5.8 mph - N/A   Scattered Clouds
8:53 AM 78.8 °F - 71.6 °F 78% 29.98 in 10.0 mi SE 6.9 mph - N/A   Scattered Clouds
9:53 AM 82.0 °F 86.3 °F 71.1 °F 69% 29.95 in 10.0 mi South 6.9 mph - N/A   Scattered Clouds
10:53 AM 84.0 °F 89.6 °F 72.0 °F 67% 29.97 in 10.0 mi Calm Calm - N/A   Scattered Clouds
11:53 AM 87.1 °F 93.6 °F 72.0 °F 61% 29.99 in 10.0 mi Calm Calm - N/A   Scattered Clouds
12:53 PM 88.0 °F 94.7 °F 72.0 °F 59% 29.98 in 10.0 mi WNW 3.5 mph - N/A   Mostly Cloudy
1:53 PM 90.0 °F 96.4 °F 71.1 °F 54% 29.97 in 10.0 mi NW 3.5 mph - N/A   Scattered Clouds
2:53 PM 91.0 °F 99.3 °F 73.0 °F 55% 29.96 in 10.0 mi Variable 5.8 mph - N/A   Scattered Clouds
3:53 PM 91.0 °F 100.4 °F 73.9 °F 57% 29.94 in 10.0 mi NW 8.1 mph - N/A   Scattered Clouds
4:53 PM 91.0 °F 98.2 °F 72.0 °F 53% 29.93 in 10.0 mi NNW 9.2 mph - N/A   Scattered Clouds
5:53 PM 90.0 °F 96.9 °F 72.0 °F 55% 29.92 in 10.0 mi NNW 9.2 mph - N/A   Scattered Clouds
6:53 PM 88.0 °F 92.9 °F 70.0 °F 55% 29.91 in 10.0 mi NW 5.8 mph - N/A   Partly Cloudy
7:53 PM 84.9 °F 90.1 °F 71.1 °F 63% 29.93 in 10.0 mi NNW 5.8 mph - N/A   Scattered Clouds
8:53 PM 80.1 °F 83.6 °F 71.1 °F 74% 29.94 in 10.0 mi NNW 4.6 mph - N/A   Scattered Clouds
9:53 PM 79.0 °F - 71.1 °F 77% 29.96 in 10.0 mi NW 4.6 mph - N/A   Partly Cloudy
10:53 PM 77.0 °F - 71.1 °F 82% 29.99 in 10.0 mi NNW 5.8 mph - N/A   Partly Cloudy
11:53 PM 75.9 °F - 70.0 °F 82% 29.99 in 10.0 mi WNW 4.6 mph - N/A   Clear